| time (UTC) | temp C | wind direction | speed KPH | gust KPH | rain 1hr cm | rain 24hr cm | rain mn cm | humidity % | barometer mb |
| 20260507051822 | 11 | 283 | 0.0 | 0.0 | 0.00 | 0.00 | 0.00 | 83 | 1023.7 |
| 20260507051320 | 11 | 286 | 0.0 | 1.6 | 0.00 | 0.00 | 0.00 | 83 | 1023.6 |
| 20260507050816 | 11 | 346 | 1.6 | 6.4 | 0.00 | 0.00 | 0.00 | 83 | 1023.7 |
| 20260507050312 | 11 | 81 | 0.0 | 3.2 | 0.00 | 0.00 | 0.00 | 84 | 1023.7 |
| 20260507045810 | 11 | 15 | 0.0 | 6.4 | 0.00 | 0.00 | 0.00 | 84 | 1023.6 |
| 20260507045307 | 11 | 340 | 0.0 | 1.6 | 0.00 | 0.00 | 0.00 | 84 | 1023.8 |
| 20260507044803 | 11 | 311 | 0.0 | 0.0 | 0.00 | 0.00 | 0.00 | 85 | 1023.7 |
| 20260507044300 | 11 | 15 | 0.0 | 1.6 | 0.00 | 0.00 | 0.00 | 85 | 1023.5 |
| 20260507043756 | 11 | 12 | 0.0 | 0.0 | 0.00 | 0.00 | 0.00 | 85 | 1023.6 |
| 20260507043252 | 11 | 12 | 0.0 | 0.0 | 0.00 | 0.00 | 0.00 | 84 | 1023.7 |
| 20260507042749 | 11 | 0 | 0.0 | 3.2 | 0.00 | 0.00 | 0.00 | 84 | 1023.7 |
| 20260507042244 | 11 | 8 | 0.0 | 1.6 | 0.00 | 0.00 | 0.00 | 84 | 1023.5 |
| 20260507041742 | 11 | 297 | 0.0 | 1.6 | 0.00 | 0.00 | 0.00 | 84 | 1023.6 |
| 20260507041238 | 11 | 349 | 0.0 | 0.0 | 0.00 | 0.00 | 0.00 | 84 | 1023.6 |
| 20260507040735 | 11 | 294 | 0.0 | 1.6 | 0.00 | 0.00 | 0.00 | 84 | 1023.7 |
| 20260507040231 | 12 | 346 | 0.0 | 3.2 | 0.00 | 0.00 | 0.00 | 84 | 1023.4 |
| 20260507035727 | 12 | 0 | 0.0 | 4.8 | 0.00 | 0.00 | 0.00 | 83 | 1023.5 |
| 20260507035223 | 12 | 353 | 3.2 | 4.8 | 0.00 | 0.00 | 0.00 | 83 | 1023.4 |
| 20260507034721 | 12 | 343 | 3.2 | 4.8 | 0.00 | 0.00 | 0.00 | 83 | 1023.5 |
| 20260507034218 | 12 | 0 | 0.0 | 3.2 | 0.00 | 0.00 | 0.00 | 83 | 1023.4 |
| 20260507033716 | 12 | 297 | 0.0 | 4.8 | 0.00 | 0.00 | 0.00 | 83 | 1023.2 |
| 20260507033213 | 12 | 285 | 0.0 | 4.8 | 0.00 | 0.00 | 0.00 | 83 | 1023.2 |
| 20260507032710 | 12 | 300 | 0.0 | 1.6 | 0.00 | 0.00 | 0.00 | 84 | 1023.2 |
| 20260507032206 | 12 | 348 | 3.2 | 3.2 | 0.00 | 0.00 | 0.00 | 84 | 1023.3 |
| 20260507031703 | 12 | 308 | 0.0 | 3.2 | 0.00 | 0.00 | 0.00 | 84 | 1023.2 |
| 20260507031159 | 12 | 12 | 0.0 | 1.6 | 0.00 | 0.00 | 0.00 | 83 | 1023.1 |
| 20260507030650 | 12 | 15 | 3.2 | 4.8 | 0.00 | 0.00 | 0.00 | 83 | 1023.1 |
| 20260507030149 | 12 | 344 | 3.2 | 3.2 | 0.00 | 0.00 | 0.00 | 83 | 1022.9 |
| 20260507025645 | 12 | 40 | 0.0 | 3.2 | 0.00 | 0.00 | 0.00 | 83 | 1022.9 |
| 20260507025142 | 12 | 0 | 0.0 | 3.2 | 0.00 | 0.00 | 0.00 | 82 | 1023.0 |
| 20260507024640 | 12 | 0 | 0.0 | 4.8 | 0.00 | 0.00 | 0.00 | 82 | 1022.8 |
| 20260507024137 | 12 | 0 | 0.0 | 4.8 | 0.00 | 0.00 | 0.00 | 82 | 1022.8 |
| 20260507023632 | 12 | 0 | 3.2 | 3.2 | 0.00 | 0.00 | 0.00 | 81 | 1022.8 |
| 20260507023130 | 12 | 12 | 3.2 | 3.2 | 0.00 | 0.00 | 0.00 | 81 | 1022.7 |
| 20260507022627 | 13 | 4 | 0.0 | 8.0 | 0.00 | 0.00 | 0.00 | 81 | 1022.7 |
| 20260507022122 | 13 | 66 | 0.0 | 1.6 | 0.00 | 0.00 | 0.00 | 80 | 1022.7 |
| 20260507021619 | 13 | 18 | 3.2 | 4.8 | 0.00 | 0.00 | 0.00 | 80 | 1022.6 |
| 20260507021115 | 13 | 240 | 0.0 | 3.2 | 0.00 | 0.00 | 0.00 | 80 | 1022.7 |
| 20260507020613 | 13 | 11 | 3.2 | 4.8 | 0.00 | 0.00 | 0.00 | 79 | 1022.7 |
| 20260507020109 | 13 | 356 | 3.2 | 8.0 | 0.00 | 0.00 | 0.00 | 79 | 1023.0 |
| 20260507015608 | 13 | 32 | 1.6 | 3.2 | 0.00 | 0.00 | 0.00 | 80 | 1022.6 |
| 20260507015104 | 13 | 0 | 1.6 | 4.8 | 0.00 | 0.00 | 0.00 | 79 | 1022.7 |
| 20260507014601 | 13 | 346 | 4.8 | 4.8 | 0.00 | 0.00 | 0.00 | 79 | 1022.7 |
| 20260507014051 | 13 | 337 | 0.0 | 6.4 | 0.00 | 0.00 | 0.00 | 79 | 1022.6 |
| 20260507013548 | 13 | 82 | 0.0 | 4.8 | 0.00 | 0.00 | 0.00 | 79 | 1022.6 |
| 20260507013045 | 13 | 324 | 4.8 | 8.0 | 0.00 | 0.00 | 0.00 | 78 | 1022.5 |
| 20260507012542 | 13 | 279 | 0.0 | 4.8 | 0.00 | 0.00 | 0.00 | 78 | 1022.5 |
| 20260507012038 | 13 | 0 | 0.0 | 4.8 | 0.00 | 0.00 | 0.00 | 78 | 1022.5 |
| 20260507011536 | 13 | 356 | 3.2 | 6.4 | 0.00 | 0.00 | 0.00 | 77 | 1022.6 |
| 20260507011031 | 14 | 328 | 0.0 | 4.8 | 0.00 | 0.00 | 0.00 | 76 | 1022.5 |
| 20260507010526 | 14 | 270 | 0.0 | 6.4 | 0.00 | 0.00 | 0.00 | 76 | 1022.4 |
| 20260507010023 | 15 | 342 | 0.0 | 8.0 | 0.00 | 0.00 | 0.00 | 75 | 1022.3 |
| 20260507005521 | 15 | 279 | 3.2 | 8.0 | 0.00 | 0.00 | 0.00 | 75 | 1022.6 |
| 20260507005017 | 15 | 0 | 0.0 | 8.0 | 0.00 | 0.00 | 0.00 | 75 | 1022.4 |
| 20260507004514 | 15 | 329 | 4.8 | 6.4 | 0.00 | 0.00 | 0.00 | 74 | 1022.6 |
| 20260507004012 | 15 | 334 | 0.0 | 11.3 | 0.00 | 0.00 | 0.00 | 74 | 1022.4 |
| 20260507003507 | 15 | 14 | 0.0 | 6.4 | 0.00 | 0.00 | 0.00 | 74 | 1022.6 |
| 20260507003001 | 15 | 312 | 3.2 | 6.4 | 0.00 | 0.00 | 0.00 | 74 | 1022.5 |
| 20260507002458 | 15 | 352 | 3.2 | 4.8 | 0.00 | 0.00 | 0.00 | 75 | 1022.8 |
| 20260507001955 | 15 | 342 | 0.0 | 6.4 | 0.00 | 0.00 | 0.00 | 74 | 1022.7 |
| 20260507001452 | 15 | 286 | 3.2 | 4.8 | 0.00 | 0.00 | 0.00 | 74 | 1022.5 |
| 20260507000949 | 15 | 270 | 0.0 | 8.0 | 0.00 | 0.00 | 0.00 | 74 | 1022.8 |
| 20260507000445 | 15 | 285 | 0.0 | 9.7 | 0.00 | 0.00 | 0.00 | 74 | 1022.7 |
| 20260506235940 | 15 | 292 | 3.2 | 8.0 | 0.00 | 0.00 | 0.00 | 73 | 1022.6 |
| 20260506235438 | 16 | 281 | 4.8 | 11.3 | 0.00 | 0.00 | 0.00 | 72 | 1022.7 |
| 20260506234933 | 16 | 326 | 6.4 | 6.4 | 0.00 | 0.00 | 0.00 | 72 | 1022.6 |
| 20260506234432 | 16 | 327 | 3.2 | 6.4 | 0.00 | 0.00 | 0.00 | 72 | 1022.6 |
| 20260506233929 | 16 | 279 | 0.0 | 9.7 | 0.00 | 0.00 | 0.00 | 72 | 1022.5 |
| 20260506233425 | 16 | 332 | 8.0 | 9.7 | 0.00 | 0.00 | 0.00 | 72 | 1022.5 |
| 20260506232922 | 16 | 351 | 0.0 | 8.0 | 0.00 | 0.00 | 0.00 | 72 | 1022.6 |
| 20260506232418 | 16 | 0 | 0.0 | 4.8 | 0.00 | 0.00 | 0.00 | 72 | 1022.4 |
| 20260506231914 | 16 | 346 | 0.0 | 6.4 | 0.00 | 0.00 | 0.00 | 72 | 1022.4 |
| 20260506231412 | 16 | 352 | 0.0 | 4.8 | 0.00 | 0.00 | 0.00 | 71 | 1022.3 |
| 20260506230909 | 16 | 12 | 3.2 | 4.8 | 0.00 | 0.00 | 0.00 | 72 | 1022.5 |
| 20260506230405 | 16 | 0 | 0.0 | 6.4 | 0.00 | 0.00 | 0.00 | 72 | 1022.5 |
| 20260506225902 | 16 | 312 | 3.2 | 8.0 | 0.00 | 0.00 | 0.00 | 69 | 1022.6 |
| 20260506225359 | 16 | 285 | 3.2 | 4.8 | 0.00 | 0.00 | 0.00 | 69 | 1022.6 |
| 20260506224856 | 17 | 32 | 3.2 | 8.0 | 0.00 | 0.00 | 0.00 | 68 | 1022.5 |
| 20260506224354 | 16 | 348 | 3.2 | 4.8 | 0.00 | 0.00 | 0.00 | 67 | 1022.7 |
| 20260506223849 | 17 | 328 | 0.0 | 3.2 | 0.00 | 0.00 | 0.00 | 68 | 1022.5 |
| 20260506223345 | 16 | 325 | 1.6 | 4.8 | 0.00 | 0.00 | 0.00 | 68 | 1022.7 |
| 20260506222842 | 16 | 303 | 0.0 | 4.8 | 0.00 | 0.00 | 0.00 | 68 | 1022.5 |
| 20260506222338 | 17 | 279 | 0.0 | 3.2 | 0.00 | 0.00 | 0.00 | 68 | 1022.7 |
| 20260506221836 | 17 | 225 | 4.8 | 4.8 | 0.00 | 0.00 | 0.00 | 70 | 1022.9 |
| 20260506221333 | 16 | 0 | 3.2 | 8.0 | 0.00 | 0.00 | 0.00 | 70 | 1022.8 |
| 20260506220831 | 16 | 341 | 0.0 | 8.0 | 0.00 | 0.00 | 0.00 | 70 | 1022.8 |
| 20260506220326 | 16 | 304 | 0.0 | 4.8 | 0.00 | 0.00 | 0.00 | 69 | 1023.0 |
| 20260506215823 | 16 | 2 | 4.8 | 6.4 | 0.00 | 0.00 | 0.00 | 68 | 1022.8 |
| 20260506215318 | 16 | 292 | 3.2 | 8.0 | 0.00 | 0.00 | 0.00 | 69 | 1022.9 |
| 20260506214809 | 16 | 244 | 8.0 | 8.0 | 0.00 | 0.00 | 0.00 | 72 | 1023.0 |
| 20260506214306 | 16 | 286 | 1.6 | 4.8 | 0.00 | 0.00 | 0.00 | 69 | 1022.8 |
| 20260506213804 | 16 | 355 | 4.8 | 4.8 | 0.00 | 0.00 | 0.00 | 70 | 1022.7 |
| 20260506213300 | 16 | 225 | 4.8 | 11.3 | 0.00 | 0.00 | 0.00 | 69 | 1022.8 |
| 20260506212758 | 16 | 237 | 3.2 | 9.7 | 0.00 | 0.00 | 0.00 | 69 | 1022.9 |
| 20260506212254 | 16 | 353 | 3.2 | 9.7 | 0.00 | 0.00 | 0.00 | 68 | 1022.8 |
| 20260506211749 | 16 | 262 | 1.6 | 8.0 | 0.00 | 0.00 | 0.00 | 70 | 1022.9 |
| 20260506211246 | 16 | 266 | 0.0 | 6.4 | 0.00 | 0.00 | 0.00 | 71 | 1022.7 |
| 20260506210743 | 16 | 350 | 4.8 | 8.0 | 0.00 | 0.00 | 0.00 | 72 | 1022.7 |
| 20260506210239 | 16 | 270 | 3.2 | 12.9 | 0.00 | 0.00 | 0.00 | 72 | 1022.8 |
| 20260506205737 | 16 | 338 | 3.2 | 9.7 | 0.00 | 0.00 | 0.00 | 71 | 1022.8 |
| 20260506205232 | 16 | 254 | 4.8 | 8.0 | 0.00 | 0.00 | 0.00 | 71 | 1022.6 |
| 20260506204729 | 16 | 243 | 3.2 | 11.3 | 0.00 | 0.00 | 0.00 | 73 | 1022.6 |
| 20260506204227 | 16 | 255 | 1.6 | 8.0 | 0.00 | 0.00 | 0.00 | 74 | 1022.7 |
| 20260506203724 | 16 | 353 | 9.7 | 14.5 | 0.00 | 0.00 | 0.00 | 73 | 1022.6 |
| 20260506203216 | 16 | 294 | 0.0 | 6.4 | 0.00 | 0.00 | 0.00 | 74 | 1022.3 |
| 20260506202713 | 16 | 344 | 6.4 | 8.0 | 0.00 | 0.00 | 0.00 | 74 | 1022.3 |
| 20260506202208 | 15 | 337 | 4.8 | 6.4 | 0.00 | 0.00 | 0.00 | 76 | 1022.5 |
| 20260506201701 | 14 | 315 | 4.8 | 14.5 | 0.00 | 0.00 | 0.00 | 79 | 1022.3 |
| 20260506201157 | 14 | 345 | 8.0 | 9.7 | 0.00 | 0.00 | 0.00 | 81 | 1022.4 |
| 20260506200654 | 14 | 356 | 6.4 | 11.3 | 0.00 | 0.00 | 0.00 | 82 | 1022.3 |
| 20260506200150 | 14 | 357 | 4.8 | 11.3 | 0.00 | 0.00 | 0.00 | 81 | 1022.2 |
| 20260506195647 | 15 | 349 | 0.0 | 12.9 | 0.00 | 0.00 | 0.00 | 79 | 1022.3 |
| 20260506195143 | 16 | 0 | 4.8 | 8.0 | 0.00 | 0.00 | 0.00 | 77 | 1022.2 |
| 20260506194641 | 17 | 26 | 4.8 | 4.8 | 0.00 | 0.00 | 0.00 | 73 | 1022.2 |
| 20260506194137 | 16 | 103 | 0.0 | 6.4 | 0.00 | 0.00 | 0.00 | 75 | 1022.1 |
| 20260506193635 | 16 | 342 | 0.0 | 4.8 | 0.00 | 0.00 | 0.00 | 81 | 1022.5 |
| 20260506193132 | 15 | 19 | 6.4 | 8.0 | 0.00 | 0.00 | 0.00 | 82 | 1022.0 |
| 20260506192629 | 15 | 3 | 4.8 | 4.8 | 0.00 | 0.00 | 0.00 | 81 | 1022.4 |
| 20260506192125 | 15 | 16 | 3.2 | 6.4 | 0.00 | 0.00 | 0.00 | 81 | 1022.5 |
| 20260506191622 | 15 | 345 | 4.8 | 4.8 | 0.00 | 0.00 | 0.00 | 81 | 1022.5 |
| 20260506191117 | 15 | 0 | 3.2 | 6.4 | 0.00 | 0.00 | 0.00 | 81 | 1022.5 |
| 20260506190615 | 15 | 18 | 3.2 | 4.8 | 0.00 | 0.00 | 0.00 | 81 | 1022.4 |
| 20260506190112 | 15 | 120 | 8.0 | 9.7 | 0.00 | 0.00 | 0.00 | 80 | 1022.4 |
| 20260506185609 | 15 | 115 | 3.2 | 4.8 | 0.00 | 0.00 | 0.00 | 80 | 1022.4 |
| 20260506185105 | 15 | 0 | 1.6 | 4.8 | 0.00 | 0.00 | 0.00 | 81 | 1022.4 |
| 20260506184603 | 15 | 117 | 6.4 | 6.4 | 0.00 | 0.00 | 0.00 | 81 | 1022.2 |
| 20260506184100 | 15 | 95 | 3.2 | 4.8 | 0.00 | 0.00 | 0.00 | 82 | 1022.3 |
| 20260506183556 | 15 | 97 | 4.8 | 6.4 | 0.00 | 0.00 | 0.00 | 83 | 1022.4 |
| 20260506183052 | 15 | 123 | 6.4 | 6.4 | 0.00 | 0.00 | 0.00 | 83 | 1022.3 |
| 20260506182550 | 15 | 90 | 3.2 | 6.4 | 0.00 | 0.00 | 0.00 | 84 | 1022.3 |
| 20260506182047 | 15 | 90 | 3.2 | 6.4 | 0.00 | 0.00 | 0.00 | 83 | 1022.4 |
| 20260506181545 | 14 | 50 | 3.2 | 8.0 | 0.00 | 0.00 | 0.00 | 84 | 1022.6 |
| 20260506181041 | 13 | 90 | 3.2 | 4.8 | 0.00 | 0.00 | 0.00 | 85 | 1022.4 |
| 20260506180538 | 13 | 79 | 4.8 | 4.8 | 0.00 | 0.00 | 0.00 | 86 | 1022.5 |
| 20260506180035 | 13 | 99 | 0.0 | 3.2 | 0.00 | 0.00 | 0.00 | 87 | 1022.5 |
| 20260506175531 | 13 | 45 | 3.2 | 4.8 | 0.00 | 0.00 | 0.00 | 87 | 1022.5 |
| 20260506175028 | 12 | 114 | 0.0 | 1.6 | 0.00 | 0.00 | 0.00 | 88 | 1022.6 |
| 20260506174527 | 12 | 4 | 3.2 | 3.2 | 0.00 | 0.00 | 0.00 | 88 | 1022.7 |
| 20260506174022 | 12 | 294 | 0.0 | 3.2 | 0.00 | 0.00 | 0.00 | 88 | 1022.6 |
| 20260506173520 | 12 | 5 | 0.0 | 3.2 | 0.00 | 0.00 | 0.00 | 88 | 1022.8 |
| 20260506173017 | 12 | 29 | 0.0 | 3.2 | 0.00 | 0.00 | 0.00 | 89 | 1022.8 |
| 20260506172514 | 12 | 7 | 1.6 | 3.2 | 0.00 | 0.00 | 0.00 | 88 | 1022.7 |
| 20260506172010 | 12 | 0 | 1.6 | 3.2 | 0.00 | 0.00 | 0.00 | 89 | 1022.8 |
| 20260506171507 | 12 | 356 | 3.2 | 3.2 | 0.00 | 0.00 | 0.00 | 89 | 1022.6 |
| 20260506171004 | 12 | 0 | 0.0 | 1.6 | 0.00 | 0.00 | 0.00 | 88 | 1022.4 |
| 20260506170501 | 12 | 0 | 0.0 | 3.2 | 0.00 | 0.00 | 0.00 | 88 | 1022.5 |
| 20260506165954 | 12 | 82 | 0.0 | 3.2 | 0.00 | 0.00 | 0.00 | 88 | 1022.5 |
| 20260506165452 | 12 | 29 | 3.2 | 3.2 | 0.00 | 0.00 | 0.00 | 88 | 1022.6 |
| 20260506164948 | 12 | 8 | 0.0 | 0.0 | 0.00 | 0.00 | 0.00 | 89 | 1022.5 |
| 20260506164445 | 12 | 15 | 3.2 | 3.2 | 0.00 | 0.00 | 0.00 | 89 | 1022.6 |
| 20260506163943 | 12 | 0 | 0.0 | 3.2 | 0.00 | 0.00 | 0.00 | 89 | 1022.3 |
| 20260506163438 | 11 | 69 | 1.6 | 3.2 | 0.00 | 0.00 | 0.00 | 90 | 1022.3 |
| 20260506162932 | 11 | 172 | 0.0 | 4.8 | 0.00 | 0.00 | 0.00 | 90 | 1022.4 |
| 20260506162430 | 11 | 201 | 3.2 | 3.2 | 0.00 | 0.00 | 0.00 | 90 | 1022.3 |
| 20260506161922 | 11 | 66 | 0.0 | 3.2 | 0.00 | 0.00 | 0.00 | 90 | 1022.5 |
| 20260506161420 | 11 | 0 | 0.0 | 3.2 | 0.00 | 0.00 | 0.00 | 90 | 1022.7 |
| 20260506160917 | 11 | 0 | 1.6 | 3.2 | 0.00 | 0.00 | 0.00 | 90 | 1022.5 |
| 20260506160414 | 11 | 0 | 0.0 | 3.2 | 0.00 | 0.00 | 0.00 | 91 | 1022.4 |
| 20260506155912 | 11 | 14 | 1.6 | 3.2 | 0.00 | 0.00 | 0.00 | 90 | 1022.5 |
| 20260506155409 | 11 | 8 | 0.0 | 0.0 | 0.00 | 0.00 | 0.00 | 90 | 1022.4 |
| 20260506153531 | 11 | 8 | 0.0 | 0.0 | 0.00 | 0.00 | 0.00 | 91 | 1022.3 |
| 20260506153028 | 11 | 90 | 0.0 | 3.2 | 0.00 | 0.00 | 0.00 | 91 | 1022.2 |
| 20260506152525 | 11 | 0 | 0.0 | 4.8 | 0.00 | 0.00 | 0.00 | 92 | 1022.4 |
| 20260506152023 | 11 | 15 | 0.0 | 3.2 | 0.00 | 0.00 | 0.00 | 92 | 1022.3 |
| 20260506151521 | 11 | 36 | 0.0 | 3.2 | 0.00 | 0.00 | 0.00 | 92 | 1022.5 |
| 20260506151018 | 11 | 337 | 0.0 | 4.8 | 0.00 | 0.00 | 0.00 | 92 | 1022.4 |
| 20260506150514 | 11 | 8 | 3.2 | 3.2 | 0.00 | 0.00 | 0.00 | 92 | 1022.0 |
| 20260506150011 | 11 | 348 | 1.6 | 4.8 | 0.00 | 0.00 | 0.00 | 93 | 1022.4 |
| 20260506145508 | 11 | 352 | 0.0 | 0.0 | 0.00 | 0.00 | 0.00 | 93 | 1021.8 |
| 20260506145005 | 11 | 6 | 1.6 | 3.2 | 0.00 | 0.00 | 0.00 | 92 | 1021.9 |
| 20260506144502 | 11 | 74 | 0.0 | 1.6 | 0.00 | 0.00 | 0.00 | 92 | 1021.6 |
| 20260506143959 | 11 | 23 | 0.0 | 0.0 | 0.00 | 0.00 | 0.00 | 92 | 1021.8 |
| 20260506143456 | 11 | 90 | 0.0 | 1.6 | 0.00 | 0.00 | 0.00 | 92 | 1021.8 |
| 20260506142955 | 11 | 23 | 0.0 | 3.2 | 0.00 | 0.00 | 0.00 | 92 | 1022.1 |
| 20260506142452 | 11 | 69 | 1.6 | 3.2 | 0.00 | 0.00 | 0.00 | 93 | 1022.0 |
| 20260506141950 | 11 | 77 | 1.6 | 3.2 | 0.00 | 0.00 | 0.00 | 93 | 1022.0 |
| 20260506141448 | 11 | 36 | 0.0 | 3.2 | 0.00 | 0.00 | 0.00 | 92 | 1022.0 |
| 20260506140946 | 11 | 63 | 1.6 | 3.2 | 0.00 | 0.00 | 0.00 | 93 | 1021.9 |
| 20260506140443 | 11 | 90 | 1.6 | 3.2 | 0.00 | 0.00 | 0.00 | 93 | 1022.1 |
| 20260506135939 | 11 | 90 | 1.6 | 1.6 | 0.00 | 0.00 | 0.00 | 93 | 1022.3 |
| 20260506135437 | 11 | 26 | 0.0 | 3.2 | 0.00 | 0.00 | 0.00 | 93 | 1022.4 |
| 20260506134933 | 11 | 40 | 3.2 | 3.2 | 0.00 | 0.00 | 0.00 | 94 | 1022.1 |
| 20260506134429 | 11 | 90 | 0.0 | 3.2 | 0.00 | 0.00 | 0.00 | 94 | 1021.9 |
| 20260506133926 | 11 | 66 | 0.0 | 3.2 | 0.00 | 0.00 | 0.00 | 94 | 1022.0 |
| 20260506133423 | 11 | 54 | 0.0 | 1.6 | 0.00 | 0.00 | 0.00 | 94 | 1021.9 |
| 20260506132920 | 11 | 41 | 3.2 | 3.2 | 0.00 | 0.00 | 0.00 | 94 | 1021.9 |
| 20260506132417 | 11 | 57 | 1.6 | 3.2 | 0.00 | 0.00 | 0.00 | 94 | 1021.8 |
| 20260506131914 | 11 | 66 | 1.6 | 3.2 | 0.00 | 0.00 | 0.00 | 94 | 1021.7 |
| 20260506131411 | 11 | 81 | 0.0 | 3.2 | 0.00 | 0.00 | 0.00 | 94 | 1021.6 |
| 20260506130908 | 11 | 90 | 1.6 | 3.2 | 0.00 | 0.00 | 0.00 | 94 | 1021.6 |
| 20260506130404 | 11 | 90 | 1.6 | 3.2 | 0.00 | 0.00 | 0.00 | 94 | 1021.6 |
| 20260506125902 | 11 | 69 | 0.0 | 1.6 | 0.00 | 0.00 | 0.00 | 94 | 1021.7 |
| 20260506125400 | 11 | 81 | 0.0 | 3.2 | 0.00 | 0.00 | 0.00 | 94 | 1021.7 |
| 20260506124858 | 11 | 60 | 1.6 | 3.2 | 0.00 | 0.00 | 0.00 | 93 | 1021.5 |
| 20260506124355 | 11 | 90 | 0.0 | 1.6 | 0.00 | 0.00 | 0.00 | 94 | 1021.5 |
| 20260506123853 | 11 | 82 | 0.0 | 1.6 | 0.00 | 0.00 | 0.00 | 94 | 1021.5 |
| 20260506123351 | 11 | 74 | 1.6 | 3.2 | 0.00 | 0.00 | 0.00 | 94 | 1021.3 |
| 20260506122848 | 11 | 54 | 0.0 | 3.2 | 0.00 | 0.00 | 0.00 | 94 | 1021.5 |
| 20260506122345 | 11 | 90 | 0.0 | 1.6 | 0.00 | 0.00 | 0.00 | 94 | 1021.1 |
| 20260506121843 | 11 | 60 | 1.6 | 3.2 | 0.00 | 0.00 | 0.00 | 94 | 1021.4 |
| 20260506121340 | 11 | 54 | 0.0 | 3.2 | 0.00 | 0.00 | 0.00 | 94 | 1021.2 |
| 20260506120837 | 11 | 32 | 0.0 | 1.6 | 0.00 | 0.00 | 0.00 | 94 | 1021.2 |
| 20260506120334 | 11 | 54 | 0.0 | 3.2 | 0.00 | 0.00 | 0.00 | 93 | 1021.2 |
| 20260506115832 | 11 | 105 | 0.0 | 1.6 | 0.00 | 0.00 | 0.00 | 94 | 1021.2 |
| 20260506115330 | 11 | 60 | 0.0 | 3.2 | 0.00 | 0.00 | 0.00 | 94 | 1021.3 |
| 20260506114828 | 11 | 90 | 1.6 | 3.2 | 0.00 | 0.00 | 0.00 | 94 | 1021.3 |
| 20260506114325 | 11 | 65 | 3.2 | 3.2 | 0.00 | 0.00 | 0.00 | 94 | 1021.2 |
| 20260506113824 | 11 | 96 | 3.2 | 3.2 | 0.00 | 0.00 | 0.00 | 94 | 1021.2 |
| 20260506113321 | 11 | 96 | 3.2 | 3.2 | 0.00 | 0.00 | 0.00 | 94 | 1021.2 |
| 20260506112817 | 11 | 90 | 1.6 | 3.2 | 0.00 | 0.00 | 0.00 | 94 | 1021.4 |
| 20260506112314 | 11 | 84 | 1.6 | 3.2 | 0.00 | 0.00 | 0.00 | 95 | 1021.1 |
| 20260506111812 | 11 | 83 | 1.6 | 3.2 | 0.00 | 0.00 | 0.00 | 95 | 1021.1 |
| 20260506111310 | 11 | 90 | 1.6 | 3.2 | 0.00 | 0.00 | 0.00 | 95 | 1021.3 |
| 20260506110807 | 11 | 90 | 1.6 | 3.2 | 0.00 | 0.00 | 0.00 | 96 | 1021.2 |
| 20260506110304 | 11 | 66 | 3.2 | 3.2 | 0.00 | 0.00 | 0.00 | 96 | 1021.0 |
| 20260506105800 | 11 | 82 | 1.6 | 3.2 | 0.00 | 0.00 | 0.00 | 96 | 1020.9 |
| 20260506105257 | 10 | 82 | 1.6 | 1.6 | 0.00 | 0.00 | 0.00 | 96 | 1020.9 |
| 20260506104755 | 10 | 90 | 1.6 | 3.2 | 0.00 | 0.00 | 0.00 | 96 | 1020.7 |
| 20260506104253 | 10 | 49 | 3.2 | 3.2 | 0.00 | 0.00 | 0.00 | 96 | 1020.9 |
| 20260506103750 | 10 | 99 | 0.0 | 1.6 | 0.00 | 0.00 | 0.00 | 96 | 1020.6 |
| 20260506103247 | 10 | 74 | 0.0 | 1.6 | 0.00 | 0.00 | 0.00 | 96 | 1020.6 |
| 20260506102744 | 10 | 60 | 0.0 | 0.0 | 0.00 | 0.00 | 0.00 | 96 | 1020.6 |
| 20260506102243 | 10 | 29 | 0.0 | 0.0 | 0.00 | 0.00 | 0.00 | 96 | 1020.6 |
| 20260506101739 | 10 | 29 | 0.0 | 0.0 | 0.00 | 0.00 | 0.00 | 96 | 1020.4 |
| 20260506101236 | 10 | 32 | 0.0 | 1.6 | 0.00 | 0.00 | 0.00 | 95 | 1020.3 |
| 20260506100734 | 10 | 45 | 0.0 | 3.2 | 0.00 | 0.00 | 0.00 | 96 | 1020.6 |
| 20260506100231 | 10 | 60 | 1.6 | 3.2 | 0.00 | 0.00 | 0.00 | 96 | 1020.3 |
| 20260506095730 | 10 | 23 | 1.6 | 1.6 | 0.00 | 0.00 | 0.00 | 96 | 1020.4 |
| 20260506095226 | 10 | 81 | 0.0 | 0.0 | 0.00 | 0.00 | 0.00 | 96 | 1020.4 |
| 20260506094723 | 10 | 75 | 0.0 | 1.6 | 0.00 | 0.00 | 0.00 | 96 | 1020.2 |
| 20260506094221 | 10 | 77 | 0.0 | 1.6 | 0.00 | 0.00 | 0.00 | 96 | 1020.4 |
| 20260506093720 | 10 | 75 | 0.0 | 1.6 | 0.00 | 0.00 | 0.00 | 96 | 1020.5 |
| 20260506093216 | 10 | 74 | 0.0 | 1.6 | 0.00 | 0.00 | 0.00 | 96 | 1020.5 |
| 20260506092714 | 10 | 81 | 0.0 | 3.2 | 0.00 | 0.00 | 0.00 | 96 | 1020.4 |
| 20260506092212 | 10 | 41 | 0.0 | 3.2 | 0.00 | 0.00 | 0.00 | 96 | 1020.2 |
| 20260506091709 | 10 | 81 | 0.0 | 1.6 | 0.00 | 0.00 | 0.00 | 96 | 1020.3 |
| 20260506091206 | 10 | 74 | 0.0 | 0.0 | 0.00 | 0.00 | 0.00 | 96 | 1020.2 |
| 20260506090704 | 10 | 74 | 0.0 | 0.0 | 0.00 | 0.00 | 0.00 | 96 | 1020.3 |
| 20260506090201 | 10 | 74 | 0.0 | 0.0 | 0.00 | 0.00 | 0.00 | 96 | 1020.3 |
| 20260506085658 | 10 | 75 | 0.0 | 1.6 | 0.00 | 0.00 | 0.00 | 96 | 1020.2 |
| 20260506085153 | 10 | 35 | 0.0 | 0.0 | 0.00 | 0.00 | 0.00 | 96 | 1020.2 |
| 20260506084650 | 10 | 74 | 0.0 | 0.0 | 0.00 | 0.00 | 0.00 | 96 | 1020.1 |
| 20260506084147 | 10 | 60 | 0.0 | 0.0 | 0.00 | 0.00 | 0.00 | 96 | 1020.2 |
| 20260506083644 | 9 | 75 | 0.0 | 1.6 | 0.00 | 0.00 | 0.00 | 96 | 1020.1 |
| 20260506083142 | 9 | 75 | 0.0 | 1.6 | 0.00 | 0.00 | 0.00 | 95 | 1020.1 |
| 20260506082639 | 9 | 66 | 0.0 | 1.6 | 0.00 | 0.00 | 0.00 | 95 | 1020.2 |
| 20260506082134 | 9 | 60 | 0.0 | 0.0 | 0.00 | 0.00 | 0.00 | 95 | 1020.2 |
| 20260506081632 | 9 | 74 | 0.0 | 1.6 | 0.00 | 0.00 | 0.00 | 95 | 1020.0 |
| 20260506081130 | 9 | 63 | 1.6 | 1.6 | 0.00 | 0.00 | 0.00 | 95 | 1019.9 |
| 20260506080627 | 9 | 60 | 0.0 | 1.6 | 0.00 | 0.00 | 0.00 | 95 | 1020.0 |
| 20260506080124 | 9 | 45 | 0.0 | 3.2 | 0.00 | 0.00 | 0.00 | 95 | 1019.9 |
| 20260506073108 | 10 | 29 | 1.6 | 3.2 | 0.00 | 0.00 | 0.00 | 94 | 1019.6 |
| 20260506072604 | 10 | 105 | 1.6 | 1.6 | 0.00 | 0.00 | 0.00 | 95 | 1019.6 |
| 20260506072102 | 10 | 74 | 0.0 | 1.6 | 0.00 | 0.00 | 0.00 | 95 | 1019.6 |
| 20260506071559 | 10 | 75 | 1.6 | 1.6 | 0.00 | 0.00 | 0.00 | 95 | 1019.5 |
| 20260506071057 | 10 | 60 | 0.0 | 3.2 | 0.00 | 0.00 | 0.00 | 96 | 1019.4 |
| 20260506070554 | 10 | 78 | 1.6 | 1.6 | 0.00 | 0.00 | 0.00 | 96 | 1019.4 |
| 20260506062028 | 10 | 78 | 1.6 | 3.2 | 0.00 | 0.00 | 0.00 | 94 | 1018.8 |
| 20260506061523 | 10 | 63 | 0.0 | 1.6 | 0.00 | 0.00 | 0.00 | 94 | 1019.0 |
| 20260506061021 | 10 | 54 | 0.0 | 0.0 | 0.00 | 0.00 | 0.00 | 94 | 1018.8 |
| 20260506060520 | 10 | 82 | 0.0 | 0.0 | 0.00 | 0.00 | 0.00 | 93 | 1019.0 |